Theta_e
304 293 291 290 293 295 297 297 297 298 297 296 295 293 292 292 293 296 296 296 296 292 292 293 293 293 295 296 297 298 298 298 297 297 298 299 299 300 299 299 299 299 300 300 301 300 300 300 300 298 297 296 296 295 295 295 294 294 293 293 292 293 293 293 293 292 291 290 290 289 290 290 289 289 289 290 290 290 289 290 290 290 289 290 289 289
304 293 293 296 297 298 298 299 298 297 297 295 294 292 292 292 291 295 296 294 295 292 290 292 292 293 294 296 296 297 297 296 297 297 297 298 299 299 299 299 299 300 302 300 298 299 298 298 297 295 295 295 294 294 294 294 294 293 293 293 292 293 293 293 293 292 291 291 291 290 289 289 289 289 289 288 289 290 291 290 290 290 289 289 288 288
293 292 295 298 299 299 298 298 297 296 295 295 292 291 290 292 294 296 297 293 292 291 289 291 290 291 294 295 297 297 297 298 298 299 299 298 298 299 299 299 299 299 297 297 297 298 297 297 296 294 294 294 295 293 293 293 293 292 292 293 292 292 292 292 293 292 291 291 291 291 290 290 289 289 289 289 289 290 289 289 289 289 289 289 288 288
289 293 297 300 299 297 296 296 295 295 295 292 290 289 288 292 290 288 293 290 292 290 288 289 290 291 294 296 296 298 298 299 300 300 300 300 299 299 300 300 299 298 296 295 296 295 295 295 294 293 292 293 293 292 292 293 292 292 292 292 292 292 292 292 292 292 291 291 291 291 291 291 289 288 290 289 289 289 289 288 289 289 289 288 288 288
292 296 299 299 298 297 295 295 293 291 291 292 292 290 290 291 293 292 292 292 292 292 291 289 288 289 292 291 293 296 298 297 298 298 299 299 300 301 301 301 302 299 297 295 295 294 293 293 293 293 292 293 292 292 292 292 292 293 292 293 292 292 292 292 293 292 291 292 290 290 289 289 288 288 287 287 286 287 288 288 288 288 288 288 287 287
294 298 299 295 296 296 295 293 293 293 290 290 293 293 293 293 292 293 294 293 288 288 293 291 284 285 289 292 293 295 293 294 296 296 297 298 298 299 298 300 300 300 298 297 295 294 294 293 292 291 291 292 292 292 292 293 293 292 292 292 292 292 291 291 291 291 292 291 289 288 286 285 285 284 285 285 285 286 286 286 287 288 288 288 287 286
296 298 298 295 294 293 293 292 293 294 290 287 289 295 295 294 293 292 292 290 281 281 289 291 281 283 289 290 292 292 291 293 294 295 296 298 298 298 298 299 298 299 298 297 296 294 293 293 292 291 291 292 292 292 292 292 292 292 292 292 292 291 291 291 291 291 291 290 289 288 287 287 286 285 285 286 286 286 287 287 287 287 287 287 286 286
295 292 292 296 294 293 291 290 294 295 290 288 290 291 294 292 291 291 291 289 286 290 291 292 287 282 284 288 292 293 292 292 293 295 295 297 297 297 298 298 298 299 298 298 296 295 294 293 292 291 292 292 292 292 292 292 292 291 292 292 291 291 291 291 291 291 291 290 289 288 287 287 286 285 285 286 286 287 287 286 286 286 286 286 286 286
295 291 292 292 290 288 291 294 296 295 292 290 289 293 292 293 292 291 289 285 285 283 281 285 289 282 283 287 292 293 290 292 293 294 295 296 297 297 298 298 299 299 299 298 296 294 293 293 293 292 291 292 292 292 292 292 292 291 291 291 291 291 290 290 291 291 290 290 289 288 287 286 286 286 287 287 287 287 286 285 285 285 285 285 285 285
297 295 295 295 291 289 293 285 289 296 291 292 290 292 292 292 290 290 285 285 283 281 280 283 287 281 283 289 288 289 290 290 292 294 295 296 297 297 298 298 297 298 298 297 297 295 294 294 293 293 292 291 291 292 292 291 291 291 291 291 290 290 290 290 290 290 289 289 289 287 287 286 286 287 286 286 285 284 284 284 284 284 284 284 284 284
294 293 296 297 292 295 285 286 289 288 292 292 293 292 289 288 285 286 285 284 281 279 282 286 288 285 281 286 287 287 289 292 293 293 294 295 296 297 297 297 299 298 298 296 296 295 294 293 292 291 290 290 290 291 291 291 291 290 291 290 290 290 289 289 289 289 289 288 288 287 287 286 286 286 286 285 284 284 283 283 283 283 283 283 283 284
293 293 291 293 297 291 291 288 290 290 291 292 287 285 286 283 283 283 282 283 277 279 283 285 288 288 279 281 288 292 292 294 294 292 293 294 296 297 297 298 300 299 298 296 295 293 292 290 290 289 289 289 289 289 290 290 290 290 290 290 289 288 288 288 288 288 287 287 287 287 287 287 287 286 285 284 284 284 283 283 283 283 283 283 283 283
287 289 292 294 295 295 290 290 288 288 289 289 284 284 281 279 281 277 279 275 276 279 282 285 287 283 283 288 290 292 291 294 294 295 295 295 296 297 297 298 300 298 296 295 294 293 291 290 289 288 288 287 287 289 289 289 289 289 289 288 288 287 287 287 287 287 286 286 286 286 286 286 287 286 285 284 284 284 283 283 282 282 282 282 282 281
286 290 292 292 291 295 294 287 284 282 284 285 284 282 280 276 275 274 276 279 280 283 286 285 288 284 287 289 294 295 296 295 294 295 294 294 295 296 296 298 298 296 296 295 294 293 292 291 290 289 288 288 288 288 288 288 289 289 289 288 288 288 287 287 287 286 286 286 286 285 285 286 286 285 284 284 284 284 283 283 282 282 282 281 281 281
282 284 288 291 286 294 293 292 291 288 283 286 288 286 284 282 278 273 276 276 279 281 283 284 282 279 279 284 293 296 297 298 298 296 295 295 295 297 297 297 295 293 292 294 293 292 292 291 289 289 288 288 287 287 288 288 288 288 288 288 288 287 287 287 286 286 285 285 285 285 285 285 285 285 284 283 284 283 282 282 281 281 281 280 281 281
286 286 290 296 292 294 291 294 295 290 285 285 287 289 283 282 285 282 284 282 280 279 280 279 279 281 287 291 293 292 293 294 294 295 295 295 296 297 295 296 295 294 292 291 291 290 289 289 287 287 287 287 287 287 287 287 288 288 288 288 288 288 287 287 286 286 286 285 285 284 284 284 284 284 283 283 283 282 282 281 281 280 280 280 280 281
285 283 292 293 292 292 290 294 294 295 282 284 286 282 286 289 287 283 284 284 281 280 280 283 283 287 291 293 294 295 295 295 294 294 294 295 296 297 294 294 293 292 291 290 291 290 289 287 287 288 287 287 287 286 287 287 288 288 288 287 287 287 287 286 286 286 285 285 284 284 284 284 284 283 283 282 282 281 281 281 280 280 280 280 279 280
285 287 290 290 288 290 287 288 292 293 292 285 280 284 290 290 287 284 277 280 278 276 279 283 281 283 283 281 288 290 291 292 293 293 295 296 296 296 294 295 294 292 290 289 289 288 289 289 289 288 287 287 287 287 287 287 287 288 288 287 287 287 286 286 286 285 285 284 284 283 284 284 284 283 283 282 281 281 280 280 279 279 279 279 279 280
292 284 288 289 288 289 290 292 290 293 293 285 285 291 285 279 278 282 281 275 274 274 277 280 282 282 285 285 289 288 288 290 292 293 294 294 295 293 293 293 291 289 288 289 289 289 289 289 289 289 288 287 287 287 286 287 287 287 287 287 287 286 287 286 286 285 285 285 285 284 284 283 283 282 282 281 281 280 280 279 279 278 278 278 278 279
291 285 286 286 287 289 288 287 282 283 289 289 289 285 288 282 280 279 282 281 280 277 277 278 281 280 288 287 290 288 289 291 291 290 291 294 294 293 293 293 291 290 290 289 288 289 289 289 289 289 288 287 287 286 286 286 286 286 287 286 286 286 286 285 285 285 284 284 284 284 283 282 282 282 281 280 280 279 279 279 278 277 277 278 278 277
287 290 282 285 285 288 281 284 283 286 284 282 282 280 284 282 284 282 284 282 280 277 277 276 276 282 288 289 288 289 289 291 291 292 292 293 293 292 292 293 291 291 291 289 289 288 289 288 288 287 287 287 285 284 285 285 286 286 286 286 286 286 285 285 285 285 285 284 284 283 282 282 281 280 280 279 279 279 278 278 278 277 277 277 277 276
286 285 284 283 281 283 286 290 289 290 290 287 286 284 286 283 280 279 279 286 283 281 277 276 276 284 290 293 293 291 292 292 292 292 291 292 292 292 293 290 290 290 290 290 290 289 288 287 287 286 285 285 285 285 285 285 284 284 285 286 286 286 285 285 284 285 284 284 283 283 282 281 280 280 279 278 278 277 277 277 277 276 276 276 276 276
293 287 286 284 285 287 289 292 294 292 292 291 289 285 288 286 285 282 278 281 281 281 284 283 280 282 293 291 292 292 292 292 293 294 294 296 293 292 294 291 289 290 291 291 291 290 289 288 288 287 286 286 286 286 285 284 285 285 285 285 285 286 285 285 285 285 284 283 283 282 281 280 279 279 278 277 277 277 277 277 276 276 276 275 275 275
295 284 283 285 288 289 291 292 289 291 291 287 287 288 285 284 286 284 283 283 283 282 282 281 279 283 292 291 291 294 293 291 293 292 293 293 292 292 292 292 292 290 290 289 290 290 290 288 286 286 285 286 285 285 285 285 285 285 285 285 285 285 285 284 284 284 283 283 282 282 281 280 279 278 278 277 277 276 276 276 276 276 276 275 275 275
287 285 286 282 281 283 285 288 286 284 286 283 283 286 289 288 286 286 286 285 283 283 283 281 276 281 290 292 290 291 291 291 292 291 291 292 291 291 291 291 291 291 291 289 289 290 287 286 286 287 286 286 286 285 284 284 284 284 285 285 285 285 285 284 284 283 283 282 281 281 280 279 278 277 277 277 277 276 276 276 276 276 275 275 275 275
287 285 284 279 276 274 275 276 279 281 280 283 284 285 287 287 286 284 282 284 280 283 284 281 281 286 291 293 293 293 293 292 293 293 289 289 290 291 289 290 291 291 292 292 290 287 287 288 288 286 285 285 285 285 285 284 284 284 284 284 284 284 283 283 283 283 282 281 281 280 279 278 278 277 277 277 276 276 276 276 275 275 275 275 274 274
286 285 285 284 282 280 283 285 288 288 284 280 282 284 284 286 287 287 285 283 280 283 283 284 284 285 287 289 291 292 293 292 293 294 294 295 294 291 290 291 292 292 292 291 289 288 286 284 285 285 285 286 285 284 285 284 284 284 283 283 283 284 283 283 282 282 281 281 280 279 279 278 277 277 277 277 276 276 276 276 275 275 274 275 274 274
286 284 286 286 285 286 288 287 289 289 285 286 285 284 284 284 286 285 283 281 287 283 279 286 287 285 286 289 291 292 293 293 293 294 294 295 293 290 289 290 292 290 288 287 287 287 287 287 285 285 285 285 285 285 284 284 284 284 283 283 283 283 283 283 282 281 280 280 279 279 278 278 277 277 277 277 276 276 276 275 275 275 274 274 274 273
284 283 286 286 285 287 288 289 289 288 287 287 286 286 285 286 285 283 284 286 286 282 280 285 287 285 287 290 291 292 293 293 293 294 295 295 294 293 290 288 289 289 289 289 290 289 288 287 286 286 286 285 285 284 284 284 283 283 283 283 283 283 282 282 281 280 280 279 279 279 278 278 277 277 277 276 276 275 275 275 275 275 275 274 273 273
286 283 286 286 284 286 287 287 288 287 287 287 286 286 287 286 285 285 285 286 286 284 286 286 286 286 289 290 292 293 294 294 295 295 295 293 293 293 293 290 290 289 289 289 290 290 289 289 289 288 287 286 285 284 284 284 283 283 283 283 283 283 282 281 281 280 279 279 279 278 278 277 277 277 276 276 275 275 275 275 275 274 273 273 272 271
287 282 288 285 283 283 286 287 287 287 286 284 286 286 286 286 286 286 286 285 286 285 286 286 285 285 290 293 293 294 294 295 294 293 293 293 293 293 293 290 289 289 289 288 289 290 290 291 290 289 287 286 285 285 285 285 284 284 283 283 282 282 282 281 280 280 279 279 278 278 277 277 276 276 276 275 275 274 274 274 273 272 271 270 270 269
287 284 288 285 281 280 285 284 285 286 285 284 284 285 285 284 283 285 284 286 285 284 285 285 283 284 290 293 293 293 293 292 292 292 293 293 293 293 292 292 289 291 293 293 291 290 290 290 290 290 289 288 287 286 285 285 284 283 283 283 282 282 281 280 280 279 279 278 278 277 277 276 276 275 275 274 274 273 272 271 271 270 269 269 268 269
286 284 283 283 280 279 284 285 283 284 282 279 281 284 286 286 287 287 288 288 288 288 284 282 283 289 291 292 291 291 292 292 292 292 292 293 293 293 293 293 292 292 293 293 292 291 291 291 290 290 290 290 289 287 286 286 284 283 283 283 282 281 280 280 279 279 278 278 277 277 276 276 275 274 274 274 273 272 270 270 270 269 268 268 268 268
286 285 283 285 280 280 284 283 284 280 273 275 287 290 288 286 286 285 285 287 289 289 287 289 290 292 292 292 291 291 292 292 293 294 295 294 294 294 294 292 292 293 292 291 291 291 290 290 290 290 289 290 290 290 289 287 286 285 284 283 281 280 280 279 279 278 278 277 277 276 276 275 274 273 273 272 271 270 269 268 268 268 268 268 268 267
285 285 284 286 282 280 285 284 279 273 275 286 291 291 291 290 289 288 288 289 290 291 290 289 290 291 292 293 293 293 294 294 295 294 294 293 294 293 292 293 294 293 293 294 292 291 291 291 291 290 289 288 289 288 285 284 284 282 282 281 280 280 279 279 278 277 277 276 276 276 275 275 274 272 271 270 269 268 267 267 267 267 267 267 267 267
286 285 285 284 284 284 281 280 274 274 285 287 289 291 292 291 290 288 286 288 290 290 290 289 290 291 292 293 293 294 294 294 295 295 295 295 295 294 293 294 295 295 294 295 293 292 292 290 291 291 291 288 286 285 285 285 283 283 282 280 280 279 278 278 277 277 277 276 276 275 275 274 273 270 269 268 267 267 267 267 267 267 267 267 267 268
289 287 286 282 286 279 279 280 279 286 284 284 286 286 288 285 285 285 281 284 290 291 291 290 291 292 292 293 293 293 294 294 292 293 295 295 295 295 295 294 295 295 295 295 294 293 293 290 290 290 287 284 285 284 285 284 283 282 280 279 279 278 278 277 277 277 276 276 275 275 274 274 271 269 268 267 267 267 266 266 266 267 267 267 267 267
291 286 286 284 281 286 280 278 279 278 275 281 288 289 293 292 292 291 287 284 291 292 293 291 290 291 292 292 292 292 293 290 288 290 294 295 296 295 295 295 295 294 294 294 294 293 291 289 289 287 287 285 284 285 284 283 282 281 279 279 278 278 277 277 277 277 276 276 275 274 273 273 270 269 268 267 266 266 267 267 267 266 267 267 267 267
291 290 288 285 281 284 281 278 277 276 279 287 288 292 293 294 293 291 286 281 289 292 293 293 292 292 292 291 292 292 290 286 287 290 294 295 295 295 293 292 292 292 293 294 294 294 290 289 288 286 284 284 284 283 283 282 281 280 279 278 277 277 277 276 277 276 276 275 274 273 272 271 270 269 268 267 267 267 266 266 266 267 267 267 267 267
287 286 286 282 281 282 281 279 277 282 282 287 290 291 294 295 294 287 278 278 290 292 294 294 292 292 292 292 292 291 288 286 288 291 294 294 294 293 292 291 290 290 290 291 291 291 290 287 285 283 284 284 284 283 282 281 281 280 278 277 277 276 276 277 277 276 275 274 273 272 271 270 269 268 267 267 267 267 267 267 266 266 266 266 266 266
284 284 285 280 281 282 282 279 282 283 288 290 291 292 292 293 289 280 276 285 291 292 293 293 292 293 293 292 291 289 290 291 292 293 293 291 289 290 288 287 289 290 290 290 290 288 287 286 288 287 286 286 283 282 281 281 280 279 278 277 276 276 277 277 276 275 274 273 272 271 270 269 269 268 267 267 266 267 266 266 266 265 265 265 265 265
282 283 282 284 281 280 281 279 279 284 289 293 293 294 291 285 279 279 288 292 291 289 290 289 288 289 289 288 289 289 290 291 290 290 290 290 289 289 290 291 288 287 286 286 287 287 286 284 285 284 283 283 282 281 281 280 280 279 277 276 276 277 276 276 275 274 272 271 270 269 269 268 268 268 266 266 266 265 265 266 266 265 265 265 265 265
277 279 277 281 283 283 282 279 278 275 284 286 288 289 289 284 284 287 288 289 290 289 288 288 289 288 289 288 289 289 290 290 290 290 290 290 290 290 290 290 289 288 287 287 285 285 285 283 284 284 284 282 281 281 281 280 279 278 277 276 276 276 275 274 273 272 271 270 269 268 267 267 266 266 265 265 265 265 265 265 264 264 264 264 264 264
281 274 275 279 283 276 276 277 277 281 284 288 285 281 283 284 285 287 289 287 291 290 288 288 289 289 289 289 288 289 289 289 290 290 290 289 289 289 290 290 289 288 287 286 285 284 284 284 283 283 282 279 279 279 280 280 279 278 276 276 275 274 273 272 272 270 269 269 269 267 266 265 264 264 264 264 265 264 264 263 263 263 263 264 263 263
286 279 281 276 281 278 275 280 283 285 287 287 287 285 285 285 285 286 290 290 289 289 288 288 288 289 289 289 289 289 288 289 289 289 289 288 289 288 288 288 287 286 284 284 285 284 284 283 282 281 279 277 276 276 277 278 279 277 276 276 274 274 272 271 270 269 268 268 267 266 265 264 264 263 264 264 264 263 262 262 262 262 263 263 263 263
283 284 283 279 277 284 284 283 284 285 284 282 284 285 283 283 285 289 288 288 288 289 288 288 288 289 289 289 288 288 288 288 288 289 289 289 289 289 288 288 288 284 283 282 282 280 280 279 279 279 278 275 275 276 277 277 278 277 277 275 274 273 272 270 269 268 267 266 266 264 263 263 263 263 263 264 264 264 263 262 262 263 262 263 264 264
280 280 278 275 278 276 270 280 279 280 281 282 282 284 285 285 288 289 288 288 288 288 289 288 289 289 289 288 287 287 288 289 288 289 289 288 288 289 289 288 288 287 286 285 283 281 279 277 279 279 279 280 276 276 276 277 277 278 275 273 273 273 271 269 269 268 266 265 264 263 262 262 262 262 263 263 264 264 263 263 264 263 263 263 264 264
273 281 276 275 276 273 273 278 279 281 281 282 282 282 283 285 286 287 286 286 287 287 287 287 287 287 288 287 288 288 288 289 289 288 288 288 289 289 289 289 288 288 287 285 283 280 279 279 280 280 279 279 278 276 276 276 276 276 274 273 273 271 270 269 268 267 265 263 262 262 262 262 262 262 262 263 263 263 263 264 265 264 263 264 264 264
276 278 270 275 274 275 279 279 280 281 282 282 283 283 284 284 283 283 284 285 285 284 285 285 286 285 286 286 288 288 287 287 288 288 288 289 289 289 289 289 289 289 289 287 282 280 281 281 281 281 280 281 280 277 275 276 276 274 273 273 271 270 269 268 267 265 264 263 262 262 262 262 262 262 262 263 263 264 264 264 265 265 265 266 266 265
274 271 275 273 269 270 272 276 279 273 272 277 279 282 282 282 282 280 280 280 281 281 282 282 283 285 285 286 286 286 285 286 287 287 287 288 288 289 289 289 289 289 289 289 287 284 282 282 282 282 281 282 280 276 275 275 275 273 272 271 271 270 269 267 266 264 263 262 262 262 262 261 261 262 262 263 263 263 263 266 268 267 265 265 269 270
273 273 273 270 270 270 275 277 277 277 276 278 279 279 279 281 280 278 278 278 279 280 281 282 281 280 281 282 283 283 284 284 285 285 285 285 286 287 287 287 288 288 288 289 288 285 283 282 281 281 281 281 278 276 276 275 275 271 270 270 270 270 269 267 265 264 263 262 262 263 262 262 261 262 262 263 263 263 263 264 267 270 270 269 270 271
Wind_Speed
5 6 6 9 14 12 10 12 14 14 12 13 9 7 9 8 12 15 12 6 10 5 12 15 15 16 17 14 11 11 9 11 11 11 13 12 14 16 16 11 11 12 13 7 12 13 12 12 10 8 8 8 9 10 12 13 12 12 13 13 13 11 12 11 11 10 10 10 8 6 8 8 7 7 6 6 6 6 6 7 6 5 4 5 5 4
0 7 11 16 18 9 9 10 12 13 13 13 10 8 10 6 14 14 13 1 7 6 6 10 11 14 16 12 10 10 10 15 15 15 16 17 17 18 15 15 14 11 1 7 6 8 8 8 8 8 8 9 13 9 12 14 13 13 13 14 13 11 11 12 12 11 10 10 11 11 10 8 8 8 8 7 6 7 6 7 5 5 4 5 4 4
8 14 16 17 13 9 11 11 8 7 8 7 7 6 7 12 12 10 13 4 1 3 9 10 11 14 16 13 13 13 15 14 14 17 18 16 17 15 14 13 10 3 5 6 8 8 9 9 9 9 8 9 12 12 14 13 13 14 13 12 13 12 12 12 12 11 11 9 8 9 8 10 6 4 6 6 6 6 7 6 6 5 5 6 5 4
10 12 19 13 11 12 12 7 5 5 5 7 6 5 11 10 6 9 1 3 3 5 3 4 10 12 14 13 18 20 18 17 17 18 17 16 16 16 17 15 8 6 9 10 11 11 9 10 10 9 9 10 10 11 11 13 14 13 13 13 14 13 12 12 12 11 10 10 8 8 8 8 7 7 6 6 6 7 7 7 6 5 7 6 6 6
20 6 5 13 15 15 15 9 5 5 11 7 9 9 10 11 11 11 8 3 3 6 8 7 11 13 12 14 13 15 17 16 14 12 14 14 13 15 14 11 7 8 10 10 8 9 10 11 13 13 11 11 12 12 13 14 15 12 16 16 16 14 14 12 12 13 10 9 8 7 8 7 8 6 7 7 6 7 7 7 7 7 6 7 6 6
20 9 1 4 2 6 6 7 7 6 13 9 7 12 15 14 14 12 10 7 6 7 1 1 11 12 6 15 16 10 4 8 9 10 13 15 14 14 11 14 8 6 11 14 14 15 14 12 9 9 11 13 12 13 13 14 15 13 14 14 14 11 11 12 13 14 11 12 12 12 11 10 8 8 9 11 12 10 9 9 7 7 7 7 6 6
8 4 11 11 6 6 5 6 4 8 12 9 5 8 14 13 9 8 8 3 4 5 1 2 3 22 5 7 6 2 4 8 5 9 13 14 15 13 12 12 6 9 9 7 8 9 11 11 11 11 13 14 14 13 11 12 13 13 13 13 14 13 11 11 12 13 11 12 11 14 14 13 14 13 9 6 6 8 7 7 9 8 7 7 7 6
4 3 4 3 6 8 7 8 8 10 7 11 1 0 0 2 5 4 3 5 6 2 4 2 3 10 24 7 6 11 10 6 7 10 12 13 14 14 13 11 7 10 11 13 12 13 13 14 16 18 17 14 16 13 12 12 12 14 14 14 14 11 11 10 12 13 13 13 12 12 11 10 10 11 11 11 9 8 8 9 9 8 7 7 7 7
3 3 6 7 6 5 10 14 2 10 8 3 1 1 1 0 0 1 1 4 3 4 7 6 5 4 16 3 9 11 7 10 14 13 13 15 14 15 14 13 8 11 13 13 12 13 14 16 16 14 14 14 11 11 14 14 13 12 12 13 12 12 12 11 13 13 13 12 13 12 11 10 7 8 8 7 7 9 9 9 8 8 7 7 7 7
2 4 6 8 6 9 8 1 1 6 10 2 2 4 2 1 2 1 1 1 3 1 12 6 8 6 24 12 4 6 8 11 12 15 15 14 14 14 14 14 8 8 8 9 12 13 14 14 13 13 10 10 13 11 10 9 10 11 11 13 14 14 13 12 14 13 13 12 11 12 11 11 9 8 7 8 9 8 8 9 8 7 7 7 7 7
1 2 1 1 8 5 4 2 2 1 1 3 1 1 1 0 1 0 1 1 2 8 14 9 11 10 17 4 9 8 7 10 10 7 8 9 10 12 10 10 8 9 9 9 9 10 11 10 9 9 12 13 10 10 11 12 12 12 13 14 15 14 11 12 14 14 15 12 12 12 13 13 12 11 11 10 9 8 7 8 8 8 7 7 7 7
4 2 1 3 4 4 4 3 2 1 0 2 2 2 0 4 1 0 1 2 1 17 3 13 15 15 13 2 1 6 4 10 12 9 10 11 13 14 11 10 8 10 10 10 9 9 9 8 9 10 11 12 12 10 12 12 12 13 13 13 14 12 13 11 13 13 14 13 12 11 12 13 12 13 12 13 13 12 11 10 9 7 7 7 7 7
8 14 4 3 5 10 4 3 1 2 0 4 4 2 3 4 2 2 3 1 6 14 3 10 13 4 22 17 4 6 5 8 8 10 12 12 12 12 12 9 9 9 9 11 10 10 10 12 14 14 12 11 13 15 15 15 14 13 13 14 16 15 13 14 14 15 14 13 12 12 12 11 11 12 12 12 12 11 11 10 9 9 8 7 7 7
6 2 8 6 4 7 8 9 2 2 8 7 7 7 5 5 4 7 4 5 6 8 9 9 11 14 11 7 11 16 15 10 8 9 7 7 9 9 10 6 6 7 10 11 11 12 13 13 13 14 14 14 14 14 15 14 14 13 13 15 17 17 14 12 14 15 15 14 12 11 11 11 10 11 11 10 11 10 9 9 10 10 9 9 9 8
4 8 9 10 6 8 14 15 18 8 8 15 5 9 11 9 3 3 4 9 11 9 1 1 7 7 0 6 12 17 17 17 15 11 8 8 7 10 4 4 6 6 6 7 10 11 12 12 12 14 15 14 15 15 15 13 14 14 14 15 17 15 15 15 16 14 16 14 13 12 11 11 9 11 10 9 9 10 10 9 9 8 8 8 8 8
10 14 3 19 1 10 14 15 8 4 1 5 4 1 2 8 2 10 10 10 6 5 8 5 7 2 10 5 4 4 5 7 7 9 9 8 7 11 4 5 7 7 7 7 8 8 8 8 7 7 10 12 12 14 13 14 14 15 16 17 19 21 19 17 16 16 16 14 12 12 13 13 11 9 9 8 8 8 9 10 10 9 8 8 8 7
0 8 2 8 5 11 11 4 7 7 5 3 8 7 12 1 7 5 7 7 4 5 19 4 8 10 7 18 17 17 17 17 10 8 9 10 10 15 8 6 6 7 7 7 8 9 8 7 8 9 9 10 10 12 16 17 18 19 18 16 17 16 13 16 17 17 15 14 13 14 13 12 12 13 13 12 11 11 9 9 9 9 8 7 7 7
5 9 2 6 5 2 1 3 2 1 3 7 3 8 1 1 3 3 4 1 3 6 13 7 11 15 10 16 3 6 10 9 13 13 12 15 16 17 7 8 8 9 8 7 7 7 8 8 9 9 9 10 12 14 15 17 16 16 16 17 19 17 18 17 16 16 16 16 15 14 15 14 14 13 12 11 12 10 10 8 8 8 8 8 8 7
4 10 7 2 4 3 4 2 5 1 1 4 5 1 6 3 2 3 1 6 6 7 8 8 11 13 18 20 12 10 6 9 11 12 12 14 16 9 7 8 6 5 6 7 8 9 9 10 12 13 14 11 10 10 11 11 12 12 13 14 15 19 21 19 16 14 12 13 12 12 14 15 13 12 11 10 10 10 11 11 10 10 9 8 8 8
1 6 4 3 2 1 1 2 8 4 1 1 2 2 0 2 1 6 7 2 3 11 5 14 12 15 18 5 10 6 6 10 8 6 7 12 10 6 7 7 5 7 8 8 9 10 12 13 14 14 14 14 14 13 12 12 11 13 14 13 14 13 10 11 14 15 16 16 13 12 11 12 11 11 12 12 13 11 12 11 11 10 9 10 8 7
7 6 13 1 4 1 4 6 8 11 11 3 1 3 1 1 1 2 3 5 7 7 8 8 12 17 16 3 3 3 4 7 8 9 8 8 7 6 6 5 5 6 7 8 9 9 10 11 9 9 9 8 7 6 7 9 13 13 11 14 15 17 17 17 17 15 15 13 15 14 16 15 13 13 11 11 12 12 11 10 10 10 9 8 8 8
2 5 13 2 1 6 11 5 13 11 13 13 15 14 15 9 4 6 12 2 5 7 7 7 15 14 15 9 6 7 1 5 7 8 5 5 5 5 5 6 6 6 7 8 9 9 9 9 9 6 5 5 7 9 11 11 8 9 12 13 13 13 14 16 15 17 16 15 14 16 15 14 11 12 11 12 12 12 11 11 10 10 9 9 8 8
11 5 7 11 12 14 8 10 5 7 4 2 6 7 10 9 7 9 15 10 3 4 5 9 12 20 20 2 7 9 5 6 5 1 1 0 3 5 6 6 6 7 8 9 9 9 10 10 11 12 12 12 12 10 10 10 13 15 14 13 13 16 17 17 17 15 13 14 15 16 14 13 13 13 13 13 12 12 11 11 10 10 11 9 8 7
5 1 3 10 6 5 10 2 5 2 2 4 4 5 5 10 12 10 9 5 9 3 6 8 15 16 18 4 4 11 7 6 6 6 7 8 7 6 6 6 7 7 8 7 7 6 9 8 6 6 9 12 13 13 15 14 11 11 12 14 14 17 18 15 14 14 14 14 14 14 14 15 13 14 14 14 12 13 11 11 10 9 9 9 8 8
3 2 8 8 5 5 8 13 8 2 1 2 4 5 6 6 4 6 5 3 11 10 13 14 21 9 14 4 4 7 6 7 8 6 6 8 7 6 7 8 7 8 8 7 7 9 6 5 9 13 13 13 13 12 11 12 14 14 15 14 16 16 14 12 12 13 15 14 15 14 15 15 14 15 14 14 12 13 12 11 10 9 9 9 8 7
3 4 2 8 11 11 11 10 12 7 5 4 2 6 7 7 9 4 9 7 13 7 17 17 15 13 19 20 20 20 18 15 13 10 7 5 6 7 6 7 9 10 10 10 8 4 8 12 11 9 9 10 10 12 12 12 11 12 11 13 12 11 11 13 12 13 13 13 15 15 16 15 14 16 16 14 13 13 12 11 10 9 7 8 8 6
1 3 5 5 7 10 11 11 9 6 2 3 5 8 9 8 8 9 7 9 12 13 16 14 14 18 19 21 25 26 22 19 18 17 14 12 13 11 8 9 9 10 10 10 9 8 5 5 8 11 11 12 11 10 11 13 14 12 12 12 11 11 11 11 10 11 12 12 14 13 15 15 16 14 14 13 12 11 10 10 10 10 9 8 8 8
2 6 12 16 18 18 18 20 18 16 17 17 14 12 8 9 9 11 11 14 13 15 21 10 16 19 20 19 26 29 27 20 13 14 17 16 10 8 9 9 10 8 7 6 6 8 10 11 9 9 11 12 12 12 11 12 13 13 14 14 12 10 10 9 11 12 12 12 13 14 15 14 12 12 11 10 10 11 10 10 10 9 8 8 8 8
5 11 15 15 19 21 22 23 20 21 21 22 22 20 21 17 13 16 18 21 21 18 20 12 18 23 25 23 24 26 25 18 17 21 22 21 17 16 11 7 9 10 9 9 11 11 10 10 9 11 13 13 12 12 13 12 11 11 10 10 11 12 13 11 12 12 12 13 14 14 13 11 10 10 10 10 10 11 10 10 10 10 9 8 7 6
3 10 10 15 19 21 23 25 26 28 25 24 22 20 17 15 14 15 20 22 21 19 18 22 25 30 23 21 24 24 18 19 22 23 22 18 19 20 19 10 12 10 11 12 12 12 11 12 12 14 14 13 13 14 13 12 13 14 15 14 13 13 11 12 14 15 14 14 13 11 11 11 10 11 11 11 11 11 11 10 10 10 9 8 8 7
10 8 16 17 16 20 22 22 22 25 24 26 22 18 13 12 17 23 22 17 16 18 21 26 26 24 19 26 24 18 17 19 22 26 26 22 20 21 22 12 11 12 11 11 12 13 12 14 15 14 12 13 13 15 15 15 14 13 12 11 12 13 13 13 13 13 13 13 11 11 11 12 12 12 12 11 11 10 11 11 10 10 10 9 8 7
15 12 9 9 12 15 14 20 23 23 22 22 20 18 17 21 25 22 19 18 18 23 25 24 19 18 23 23 15 16 18 21 26 28 25 21 21 21 21 16 10 12 16 16 13 12 13 13 14 14 14 14 15 15 13 12 11 11 14 13 13 12 11 12 12 13 13 12 11 13 14 13 12 13 12 12 12 12 11 11 11 10 11 10 9 6
10 8 9 10 14 16 12 17 20 20 19 18 19 21 29 31 26 20 21 23 22 22 22 19 23 22 21 13 16 17 21 25 25 24 24 24 22 22 21 18 12 13 17 17 12 11 12 12 13 14 14 13 13 13 14 15 12 13 14 14 12 11 13 13 13 13 12 12 13 14 14 13 14 14 13 13 13 12 12 12 12 12 10 8 6 6
7 11 12 8 10 9 12 18 14 15 18 19 17 30 30 30 29 31 27 28 32 26 20 19 23 21 20 16 19 23 26 26 24 23 19 15 17 21 19 12 12 15 11 10 10 9 9 10 9 10 11 12 14 15 15 14 16 15 11 11 11 14 13 14 13 13 13 12 13 14 14 14 14 14 13 13 13 13 14 14 11 7 7 7 7 7
13 12 12 6 9 10 10 11 13 23 21 9 15 19 24 28 29 31 31 28 26 25 28 28 28 25 22 22 23 26 27 28 27 24 17 12 17 16 14 15 16 15 13 13 11 8 8 9 10 9 9 9 11 9 7 9 9 8 10 12 13 13 14 12 13 12 13 13 13 13 13 14 14 14 13 13 13 13 14 14 10 10 9 9 9 9
12 12 9 6 8 6 6 8 14 17 1 5 13 14 14 19 21 21 27 26 29 29 29 27 25 25 24 25 26 26 27 28 26 22 19 20 20 16 16 18 19 18 16 14 10 9 10 9 11 11 12 8 6 8 10 12 11 12 12 12 14 13 13 13 13 13 13 14 14 15 15 16 15 14 14 13 13 13 11 9 9 11 9 8 7 7
20 15 11 13 10 16 11 14 22 10 11 3 5 8 12 16 15 20 25 27 27 25 22 24 27 26 25 26 27 26 24 21 19 18 17 21 21 19 18 17 16 17 17 15 12 12 11 9 9 11 7 6 9 10 11 10 12 12 12 12 12 14 13 14 14 15 16 15 15 16 16 16 16 15 14 15 13 8 9 11 9 8 8 9 8 8
19 19 12 15 9 14 16 14 15 12 16 13 10 12 20 23 23 22 18 24 7 14 18 23 25 27 29 27 24 21 19 18 17 16 19 22 20 18 17 15 13 14 14 15 14 10 8 7 7 6 9 9 10 11 9 11 13 13 13 12 12 14 14 15 16 16 16 17 16 17 16 17 18 18 17 16 14 12 11 9 8 9 10 10 10 9
23 23 21 19 13 11 18 15 14 15 13 5 16 15 19 18 18 17 14 22 6 13 15 23 28 27 25 21 21 18 15 14 15 16 16 17 16 15 13 9 11 12 13 14 14 13 9 8 8 7 6 7 8 7 9 12 12 12 12 12 13 13 15 16 16 16 18 17 16 16 16 16 17 18 19 14 12 10 12 11 10 9 7 6 6 7
20 15 13 15 15 13 17 18 18 8 12 9 12 14 19 19 15 6 18 12 13 18 20 24 26 23 19 17 17 16 13 15 15 15 14 16 14 10 7 9 10 10 11 12 10 9 7 5 5 5 7 10 12 9 11 11 12 13 13 13 12 14 16 18 18 14 12 13 14 14 14 15 16 15 16 17 14 8 9 9 9 9 9 7 6 6
14 15 17 25 23 21 21 19 12 10 5 6 13 13 13 12 8 15 23 10 4 10 13 14 14 14 16 17 12 12 9 12 13 12 11 8 7 8 7 6 9 9 10 10 10 5 6 8 11 12 14 11 9 10 10 11 12 12 11 12 13 17 18 13 11 13 14 13 14 14 15 13 15 17 14 16 16 9 9 8 10 10 9 10 8 7
9 7 6 13 14 15 16 18 18 13 6 6 10 12 5 2 9 15 9 15 17 15 14 13 13 15 16 15 13 11 14 17 16 14 15 15 14 12 13 13 9 6 5 3 0 4 5 5 6 5 3 4 10 10 11 12 13 11 11 12 17 18 8 11 12 13 14 15 14 14 13 14 12 14 14 13 15 12 9 8 8 9 9 7 9 10
5 9 6 8 10 13 14 14 14 14 3 17 22 8 1 7 4 13 13 13 10 9 11 12 11 11 11 12 12 13 14 15 14 13 12 12 12 12 13 14 15 11 8 6 5 2 2 3 4 7 6 4 7 8 10 12 13 11 11 15 14 8 10 11 12 13 14 14 15 14 14 14 16 13 12 14 14 16 12 9 9 9 8 11 8 9
3 9 7 5 5 6 6 8 2 6 8 9 11 7 10 10 12 17 14 15 10 7 8 9 9 10 10 11 11 13 12 13 16 15 13 11 10 10 11 11 11 11 9 5 5 5 3 3 3 5 7 4 1 2 5 11 12 10 12 14 7 10 10 12 13 14 15 15 16 16 14 14 14 12 13 14 12 10 11 10 7 7 6 6 7 7
5 3 3 10 5 4 5 8 12 14 8 6 4 10 11 16 16 17 9 7 9 10 4 5 8 9 7 7 10 11 14 13 14 14 13 11 10 8 8 8 7 7 6 5 2 0 1 2 3 1 1 1 2 3 5 5 10 10 14 9 11 13 14 14 15 16 16 16 16 16 15 14 14 14 14 13 15 13 8 10 9 8 6 7 8 7
9 12 7 9 9 7 11 10 16 9 12 21 23 18 19 20 18 5 4 8 6 6 5 8 7 9 9 6 8 11 11 11 14 15 15 14 13 10 8 7 6 5 4 4 2 1 4 4 4 3 5 4 5 6 7 10 10 14 14 8 11 12 14 16 16 16 17 15 15 16 18 19 14 14 14 14 6 7 10 12 10 8 9 7 7 8
6 8 12 9 8 11 14 7 11 13 21 23 24 24 18 9 6 5 6 6 8 9 9 7 10 12 12 9 8 9 11 11 11 13 13 12 13 13 11 10 8 6 6 7 6 5 4 5 6 8 9 10 9 10 10 12 12 10 7 13 12 13 14 15 16 16 15 16 15 15 10 12 11 10 9 9 8 6 6 8 8 9 9 8 9 8
12 7 18 11 16 12 15 16 19 17 19 20 17 15 16 13 7 4 8 8 9 8 8 12 11 12 10 11 11 10 12 12 13 13 14 14 13 14 13 12 11 10 8 7 7 6 6 7 9 10 10 12 11 11 12 12 13 10 9 11 13 14 15 16 17 17 17 17 15 15 14 8 14 14 10 8 9 9 8 6 8 9 10 11 11 10
14 13 14 9 16 17 18 17 15 16 14 12 9 12 6 9 15 13 8 8 9 11 11 10 9 11 13 13 13 12 13 14 14 14 15 15 15 14 14 13 12 11 10 8 6 8 10 10 11 12 13 14 11 11 12 13 11 9 12 13 14 16 17 16 14 13 15 15 14 14 14 14 9 8 10 10 10 7 8 9 11 9 7 4 5 7
8 11 13 13 13 13 11 13 14 16 15 17 15 8 11 16 12 13 13 12 11 12 13 14 13 10 10 12 15 15 15 14 15 13 12 13 13 14 15 14 13 12 11 9 7 8 11 11 12 12 14 14 10 11 13 14 11 9 11 13 14 16 18 16 15 15 16 15 15 15 15 13 10 9 10 12 13 11 8 5 7 6 7 7 11 13
12 13 12 12 11 14 14 19 11 9 12 9 14 14 12 10 11 14 16 15 15 12 11 13 16 17 16 14 13 15 16 16 18 17 18 16 17 16 15 15 15 14 14 12 9 8 10 12 12 12 13 12 8 11 13 12 11 11 13 15 16 18 18 18 16 15 15 15 15 17 16 9 10 9 15 15 17 14 12 10 8 11 13 11 13 14
Wind_Direction
142 179 197 215 234 226 218 215 226 237 241 256 267 267 262 264 270 272 276 230 195 193 220 228 236 250 261 258 253 249 253 258 259 250 249 249 255 257 258 250 239 237 238 182 183 177 180 181 177 164 156 155 157 155 154 159 160 158 162 159 165 163 160 156 158 162 160 158 152 149 168 169 167 166 154 159 162 160 151 144 149 154 141 128 128 140
341 220 218 228 239 232 234 230 228 236 239 244 254 262 271 260 269 269 284 202 200 187 248 236 243 249 254 258 252 253 248 251 250 256 253 255 255 258 261 259 251 243 110 132 141 162 166 164 159 151 152 152 159 164 157 165 163 163 165 166 165 164 166 168 169 165 168 172 172 167 173 165 168 163 166 172 167 166 145 149 146 150 142 132 145 156
210 223 231 235 247 254 253 254 256 261 271 273 262 277 289 269 269 283 270 174 222 161 262 273 269 264 266 262 260 251 246 247 242 244 252 254 257 262 260 255 257 171 153 150 154 156 163 159 158 155 158 167 166 162 164 165 161 166 168 170 168 172 170 172 168 168 172 170 165 164 164 164 159 153 155 156 161 143 142 150 150 158 142 144 155 153
249 232 237 245 251 251 256 234 245 267 259 249 260 267 251 261 281 288 239 74 188 179 253 242 269 269 270 264 261 257 254 249 244 245 250 249 254 256 256 255 251 201 165 165 165 166 162 162 162 158 163 167 163 162 166 169 167 168 173 174 174 176 173 171 173 171 168 165 158 154 155 151 148 154 149 139 141 140 143 162 162 161 150 156 166 161
233 226 192 221 234 236 242 231 193 221 255 227 222 237 257 256 245 240 264 215 198 224 243 285 275 267 248 259 253 251 242 247 250 252 255 256 252 252 257 264 221 185 170 165 165 164 159 167 177 175 169 165 171 174 175 173 174 177 179 178 177 177 176 173 170 168 160 145 127 114 96 101 98 95 120 127 149 163 164 158 166 172 160 162 159 155
251 236 90 201 204 215 220 237 204 198 262 257 209 212 239 252 266 268 282 342 352 307 123 57 314 271 202 221 238 249 224 227 233 227 242 252 254 254 250 249 234 176 173 174 177 176 175 174 170 170 170 176 180 182 182 178 178 175 179 177 177 176 175 174 170 167 159 157 151 146 144 148 151 161 166 177 177 177 179 180 163 164 163 158 157 159
251 191 199 213 196 218 215 233 210 167 251 273 248 210 239 255 260 268 288 23 275 240 266 62 64 295 209 240 238 275 194 220 231 220 231 240 250 255 252 247 214 178 179 185 175 165 162 176 174 182 184 186 185 190 177 178 182 178 178 177 178 177 177 174 171 168 159 160 167 169 169 169 172 172 192 179 170 168 168 160 163 162 158 159 157 161
170 136 139 187 216 223 230 252 228 195 240 260 175 319 122 269 255 246 241 197 255 320 274 202 145 268 292 246 210 221 223 215 226 230 233 237 245 251 249 244 192 184 179 179 181 177 178 178 181 187 191 187 193 179 178 181 181 181 180 178 179 177 177 175 171 171 170 168 171 172 175 175 178 180 175 176 174 164 158 159 157 155 160 162 162 162
184 166 180 207 200 204 221 229 205 176 205 236 254 60 106 127 206 37 215 255 252 350 286 162 144 279 265 296 182 178 219 236 238 233 231 236 238 243 249 247 194 187 186 176 175 179 179 185 191 189 190 195 180 179 184 185 184 180 179 178 175 178 177 177 176 172 176 175 176 176 174 179 187 171 167 162 154 151 151 147 153 156 162 164 165 165
336 173 220 202 163 220 221 57 86 190 209 248 165 72 85 86 48 166 185 279 313 311 260 160 164 221 277 272 197 190 198 213 223 226 230 229 233 235 235 247 225 184 190 183 179 179 186 188 189 189 182 175 190 186 182 180 176 181 178 180 180 182 181 177 177 174 177 178 173 180 183 179 175 166 152 151 152 149 151 152 161 161 161 163 163 165
237 221 20 172 203 222 104 80 85 16 146 134 131 92 32 7 207 294 165 152 339 245 255 173 194 172 273 310 157 135 210 204 215 232 236 237 241 247 240 225 210 180 179 181 181 182 184 182 176 166 177 185 179 182 178 182 184 181 184 183 186 185 177 175 178 176 181 181 182 185 184 180 172 165 156 153 159 154 154 162 166 168 169 165 166 162
243 83 137 252 45 89 119 60 2 204 66 130 123 152 280 315 27 332 306 117 173 271 240 180 188 186 235 265 328 208 181 198 189 202 214 226 233 242 242 232 198 180 175 173 171 175 168 162 170 170 179 178 181 176 182 186 185 185 187 184 185 184 182 175 177 178 183 185 188 186 182 180 176 167 168 168 168 171 169 169 168 166 162 167 160 160
246 237 207 31 255 154 170 136 351 18 88 162 122 108 151 254 64 281 73 275 204 246 183 178 175 232 231 243 223 247 212 214 211 195 201 214 229 240 246 228 194 177 161 166 174 170 172 176 177 182 181 174 180 186 186 187 187 188 187 187 185 190 181 179 177 182 184 185 189 186 183 183 177 178 174 172 170 171 170 166 165 166 168 162 160 167
273 248 187 208 24 224 139 195 169 314 217 155 162 166 141 242 229 256 241 222 269 257 249 231 179 225 267 266 208 241 239 226 206 222 211 209 214 234 242 209 173 172 174 176 174 177 180 183 187 185 181 183 183 186 187 186 187 188 191 190 190 193 183 176 180 183 184 189 186 183 181 182 178 181 176 178 172 172 170 168 168 168 168 168 170 165
296 296 225 140 244 164 191 206 202 194 153 197 184 150 194 189 187 247 215 241 242 263 338 185 109 235 109 231 187 207 223 234 234 219 217 225 226 246 243 164 164 171 182 171 176 183 186 190 187 185 185 185 187 185 185 186 189 187 193 192 194 188 188 184 185 183 188 187 184 182 179 179 179 177 176 175 172 167 166 167 162 164 162 161 165 162
222 245 255 178 232 158 188 218 206 95 113 210 172 172 286 229 155 233 242 251 279 332 295 198 210 236 255 319 239 228 246 237 231 222 217 222 235 251 195 163 180 189 183 179 180 185 189 187 190 194 193 192 187 187 187 188 187 191 197 196 195 191 188 186 182 189 188 186 182 180 178 180 175 170 166 167 167 167 163 162 162 164 162 158 151 149
297 258 153 167 17 178 204 167 203 151 213 211 127 196 211 136 186 258 285 275 325 308 262 247 275 263 315 275 247 239 237 244 234 224 219 218 225 239 218 213 197 194 189 183 186 190 184 176 194 200 200 197 193 190 192 191 190 194 194 196 197 195 190 190 191 188 186 182 181 186 181 176 177 174 175 175 171 166 161 156 159 159 159 151 149 148
217 258 68 170 224 301 333 297 325 280 125 96 195 233 119 28 108 165 239 318 227 233 272 288 269 294 307 289 50 169 220 233 235 224 213 214 218 231 220 223 207 199 197 193 192 191 190 191 194 199 203 204 204 200 196 197 194 195 196 197 195 190 191 195 190 188 185 185 186 183 185 184 182 178 176 170 168 163 155 155 152 149 152 162 157 149
208 267 253 222 39 333 350 1 306 255 278 159 195 338 132 249 265 237 101 252 260 250 265 273 286 267 257 265 276 301 225 217 215 217 216 216 226 228 231 236 221 175 161 179 187 188 193 195 200 201 203 204 204 205 208 206 198 197 198 201 200 198 196 191 188 187 185 187 189 188 187 184 182 178 173 169 162 160 162 162 160 160 160 151 152 148
47 255 255 352 62 36 15 169 220 197 323 63 21 348 137 85 202 147 198 202 170 259 287 277 283 277 261 235 291 274 206 206 208 222 218 223 234 234 238 237 188 186 195 193 193 198 201 202 203 202 199 197 200 199 199 200 201 205 202 195 202 204 195 184 188 187 189 191 185 186 181 187 183 178 173 169 164 166 167 166 161 158 158 163 154 153
239 167 257 132 290 119 241 184 211 169 189 216 71 284 294 185 232 104 299 206 203 232 227 266 274 269 275 153 200 266 230 188 194 209 215 228 243 239 249 243 221 214 203 202 199 203 210 213 210 202 198 204 201 200 199 200 205 208 200 203 199 195 193 191 192 186 194 183 189 180 185 184 179 178 171 166 169 166 167 164 162 163 159 145 158 152
237 192 237 134 350 212 236 166 202 207 194 190 186 206 203 185 205 237 251 206 233 215 233 233 253 262 261 85 42 24 355 196 216 200 216 245 244 251 257 243 219 205 220 208 208 202 204 211 208 207 207 207 194 198 199 202 197 204 208 208 204 200 199 195 188 192 190 187 186 185 183 180 176 173 171 167 167 166 165 163 162 158 151 156 156 153
194 181 208 230 218 244 245 242 225 232 279 251 197 240 209 212 196 208 243 230 274 246 250 241 262 250 260 39 329 309 314 351 350 26 341 217 232 244 239 234 242 217 206 210 209 206 206 201 196 191 192 197 205 211 202 191 198 203 202 200 204 202 204 196 194 190 185 186 186 186 179 172 176 173 172 170 169 167 165 163 159 156 153 152 154 150
115 86 211 246 287 313 301 38 35 355 223 291 273 224 185 217 212 223 234 231 248 211 212 240 238 258 278 296 269 279 285 272 262 257 263 279 275 256 238 237 243 259 254 235 221 211 202 191 183 191 198 199 199 199 203 209 209 203 200 202 201 207 205 196 189 186 185 188 188 180 173 177 174 172 175 175 173 168 166 161 157 152 149 148 147 151
215 251 205 252 254 285 283 285 273 14 16 237 219 234 233 249 236 245 276 305 267 232 255 253 254 274 274 289 185 258 279 273 267 266 261 269 273 254 250 253 249 244 248 254 233 218 194 177 183 194 201 205 205 205 202 200 202 204 206 199 202 209 205 196 188 185 188 185 182 180 178 176 173 177 178 177 172 169 162 159 153 151 149 144 147 146
308 324 242 215 226 234 244 234 240 243 225 218 219 250 245 221 226 253 244 233 250 237 244 248 267 266 277 289 288 282 280 278 279 280 282 260 254 261 264 259 254 245 242 241 240 203 193 201 202 203 203 207 208 204 201 203 207 208 208 211 207 202 196 197 188 189 185 183 180 183 180 177 176 181 180 175 171 167 162 154 151 145 141 143 141 138
287 14 309 275 248 240 239 253 277 289 263 220 225 215 226 230 231 231 246 247 245 254 247 250 263 274 274 283 283 281 276 275 281 282 281 279 276 265 247 244 240 239 237 235 227 221 216 200 207 209 208 209 208 205 206 203 202 200 202 207 203 201 194 193 187 186 185 185 185 181 183 180 182 179 177 174 167 160 156 153 146 142 144 142 143 149
217 246 236 242 243 246 247 253 260 263 263 261 256 247 219 214 221 222 224 241 240 257 256 243 261 265 262 261 264 271 274 271 270 278 281 277 266 259 242 235 242 251 252 243 244 229 213 216 214 214 215 213 213 207 205 206 202 198 197 200 195 191 188 186 185 184 185 183 186 188 185 183 174 172 171 165 159 158 153 145 141 137 132 133 144 151
186 230 228 230 236 238 244 248 248 254 254 252 247 247 249 238 217 223 231 238 236 238 255 254 254 258 256 252 260 263 268 279 283 280 276 278 283 275 254 242 247 241 241 230 231 228 225 225 221 220 221 219 211 205 206 203 200 195 198 194 189 190 191 177 177 182 184 187 190 190 180 168 166 163 162 161 155 151 148 141 136 133 132 134 139 137
202 232 229 224 237 235 236 239 242 246 249 253 252 247 244 243 238 223 234 237 237 247 252 253 250 251 258 263 254 258 271 281 279 277 277 277 273 273 273 248 253 241 231 230 230 232 227 227 228 226 221 217 208 209 205 201 199 197 195 195 189 188 183 169 183 183 186 189 189 177 167 165 162 162 159 156 155 150 143 140 137 135 133 128 128 128
202 215 198 225 236 239 235 241 244 247 246 253 255 256 251 260 258 248 248 253 260 257 251 251 251 257 257 256 260 272 274 274 275 271 268 269 270 270 273 261 236 245 233 218 229 234 230 229 231 230 223 219 211 210 206 204 201 197 194 190 187 186 182 177 178 184 184 186 176 168 162 163 164 158 161 155 148 146 142 139 136 131 129 129 133 135
189 242 218 222 235 242 228 234 237 240 244 248 253 260 260 248 247 246 247 242 242 249 251 253 255 253 250 253 268 266 265 261 261 264 269 268 265 267 266 268 238 247 259 254 232 227 232 229 227 227 223 219 215 212 208 204 197 187 195 189 188 182 167 173 178 179 182 176 168 167 167 166 159 159 158 152 152 148 141 134 135 133 123 128 131 137
191 197 207 221 241 240 221 229 235 240 245 247 241 245 246 246 246 253 249 248 243 246 250 249 247 245 256 261 262 260 256 253 254 257 261 262 263 264 265 263 251 242 248 253 245 229 229 229 225 222 223 220 216 211 209 200 188 192 194 187 180 155 168 176 177 176 175 174 171 171 167 161 160 160 158 158 151 146 142 141 131 121 131 137 131 133
201 214 225 199 244 239 219 236 232 239 226 226 207 222 227 239 242 244 244 240 241 233 241 239 252 255 255 254 252 254 256 255 250 250 248 255 267 267 264 261 255 251 244 239 238 232 225 226 231 226 218 215 214 211 207 188 191 196 179 164 155 166 171 171 177 175 175 171 172 169 165 163 162 161 158 152 147 145 132 127 123 119 115 124 135 148
208 211 233 207 244 245 233 234 237 228 238 224 210 217 229 239 246 249 251 248 253 253 253 251 250 251 252 250 250 252 255 259 261 259 259 254 251 258 271 267 257 252 253 257 252 239 232 226 227 235 234 226 219 208 168 178 181 149 151 160 164 168 167 174 170 173 172 172 171 166 165 164 163 159 153 151 149 145 136 130 129 139 147 151 156 157
217 212 224 227 230 261 232 213 244 247 146 228 196 209 215 239 246 259 263 254 251 247 248 254 254 252 250 251 251 250 251 254 261 267 268 261 259 257 255 258 263 266 264 259 252 248 243 229 227 227 231 218 179 177 175 178 164 159 167 160 164 166 169 169 171 174 172 174 172 170 168 165 162 157 154 150 136 128 137 136 142 144 144 141 138 142
225 232 219 247 197 241 233 228 242 272 277 140 156 203 194 221 221 224 247 242 231 241 245 252 254 254 251 248 247 250 255 260 263 266 262 262 261 254 250 255 260 263 268 272 265 255 248 227 219 226 208 171 178 169 182 165 160 157 152 162 169 166 168 168 175 179 177 176 173 172 169 167 160 157 156 141 134 135 135 142 138 136 139 140 148 153
218 227 219 237 215 213 244 244 251 234 239 228 213 201 213 221 226 231 237 261 187 237 232 242 248 248 246 247 249 252 254 261 262 261 255 257 259 265 262 257 253 255 258 263 263 255 244 228 215 206 179 178 183 186 166 159 158 157 162 167 164 167 172 175 184 181 178 178 174 171 169 166 161 159 159 157 152 149 148 138 135 145 153 150 152 158
226 223 227 222 230 217 235 240 232 243 245 159 213 201 215 221 228 239 251 259 153 220 223 234 240 241 243 244 247 248 250 249 251 252 258 259 262 257 256 253 245 236 239 241 244 249 234 216 194 181 168 166 185 186 163 157 155 155 168 169 171 173 175 187 185 182 181 176 170 168 166 166 165 163 162 157 149 142 141 145 146 143 137 134 130 140
231 225 229 238 231 229 241 241 242 224 253 201 201 207 218 220 231 246 258 265 151 215 226 235 241 246 249 245 244 243 238 252 251 252 245 250 255 264 246 235 240 241 237 240 242 231 218 169 118 150 173 189 198 166 160 156 159 168 170 176 169 177 189 193 189 176 165 161 163 163 164 166 165 163 160 158 130 136 130 131 129 138 139 140 137 141
222 223 211 225 222 223 222 242 251 259 246 181 208 207 211 216 213 235 243 270 220 221 250 259 270 270 271 277 274 271 244 248 264 277 290 292 294 286 270 237 228 227 229 231 235 194 161 177 183 188 196 198 166 160 160 157 158 177 177 170 175 194 199 182 160 161 161 158 159 163 164 164 166 161 160 156 147 130 131 139 141 138 141 143 144 141
283 253 265 235 234 228 232 238 243 258 279 294 254 230 195 69 250 247 314 357 358 356 358 4 356 359 6 1 354 341 335 337 342 351 349 344 333 323 319 312 300 286 285 317 319 164 171 169 196 207 204 170 164 161 161 161 173 176 173 175 197 202 157 154 159 154 155 158 159 159 160 162 162 158 151 149 144 135 134 140 134 136 132 133 145 146
294 304 326 278 257 242 236 246 241 230 20 13 340 310 273 245 2 344 327 334 342 5 12 355 353 351 6 350 344 338 339 341 344 346 346 348 353 348 345 344 337 316 300 308 318 335 114 159 201 220 215 166 163 165 171 167 174 181 178 196 203 150 150 151 152 152 152 153 156 159 158 159 158 156 154 151 153 146 137 137 130 130 134 143 131 136
311 290 270 262 347 333 310 266 233 67 320 348 28 323 348 320 329 331 343 323 325 352 360 350 346 347 351 344 342 334 333 335 335 338 339 339 344 343 341 340 339 339 330 335 359 11 359 322 336 351 3 11 3 184 174 177 182 184 189 206 142 145 142 150 151 152 154 158 159 156 158 156 154 151 154 141 147 137 118 129 122 127 136 121 129 137
181 186 309 305 326 315 288 309 300 318 322 292 318 295 296 309 318 302 291 320 332 334 322 343 328 331 335 340 333 333 327 329 322 320 324 318 320 323 323 319 326 331 337 332 305 103 136 210 255 273 204 146 190 207 193 195 193 191 205 190 149 155 157 156 156 157 162 162 161 159 149 150 153 153 156 147 136 125 123 126 135 132 140 140 147 147
332 322 327 325 286 278 271 264 290 309 316 317 308 305 310 313 312 258 267 319 330 300 304 315 319 324 323 328 325 317 309 307 312 313 311 314 311 306 300 302 309 320 315 303 299 159 187 194 221 214 216 203 190 201 206 208 198 201 210 150 160 159 157 156 158 163 164 161 159 155 137 135 138 139 141 139 126 124 145 146 151 144 146 148 150 157
266 302 299 273 298 318 285 316 283 304 305 302 300 304 312 300 278 327 347 340 327 326 318 319 310 309 301 298 294 285 291 295 296 294 297 300 299 297 298 295 294 292 289 285 253 186 185 190 210 221 217 224 205 202 211 208 211 209 144 168 161 159 157 161 163 163 163 162 158 153 147 144 147 144 142 139 131 122 121 136 137 137 142 149 154 158
290 334 299 293 288 265 278 292 300 301 282 278 286 302 310 330 350 351 317 313 314 311 309 303 307 302 304 304 301 298 296 297 296 298 299 297 296 298 297 293 291 295 275 245 237 199 205 201 213 222 219 227 220 202 211 213 213 191 162 160 162 156 157 163 170 169 169 164 159 160 162 141 144 143 143 145 142 139 143 140 148 148 156 163 164 160
293 311 275 319 297 294 291 287 279 286 301 303 301 315 340 339 320 322 322 314 314 319 318 315 310 310 313 309 306 304 302 300 299 298 296 296 295 294 290 289 286 279 279 265 227 201 206 214 219 222 220 227 217 198 208 215 209 179 167 165 161 161 163 169 168 165 161 161 158 161 163 159 154 143 140 137 148 142 147 152 162 156 148 149 150 162
284 268 284 296 291 290 297 316 335 320 311 314 319 350 353 339 352 344 339 337 335 327 324 322 320 320 322 323 322 319 312 307 307 309 304 302 298 299 300 300 296 292 285 272 254 224 228 229 226 227 227 233 214 196 208 211 198 178 169 162 166 164 167 164 162 164 169 170 169 162 161 161 153 144 133 145 146 140 128 117 133 135 140 144 161 161
266 270 279 279 279 288 302 308 333 319 306 302 323 342 344 338 343 341 330 326 322 320 324 331 330 326 319 312 309 310 308 310 310 313 308 306 301 299 295 295 295 293 290 285 276 249 234 235 229 232 238 237 202 202 208 204 191 177 173 170 171 171 170 163 166 172 172 172 178 173 165 144 144 148 140 132 136 141 139 136 147 151 146 150 160 161